Time,TemperatureF,DewpointF,PressureIn,WindDirection,WindDirectionDegrees,WindSpeedMPH,WindSpeedGustMPH,Humidity,HourlyPrecipIn,Conditions,Clouds,dailyrainin,SoftwareType,DateUTC
2013-07-10 00:01:00,66.0,45.0,26.97,West,270,0.0,0.0,47,0.00,,,0.00,Rainwise IP-100,2013-07-10 06:01:00,
2013-07-10 00:06:00,65.0,45.0,26.98,West,270,0.0,3.0,48,0.00,,,0.00,Rainwise IP-100,2013-07-10 06:06:00,
2013-07-10 00:11:00,65.0,45.0,26.98,SSW,202,0.0,3.0,48,0.00,,,0.00,Rainwise IP-100,2013-07-10 06:11:00,
2013-07-10 00:16:00,65.0,45.0,26.98,ENE,67,2.0,6.0,48,0.00,,,0.00,Rainwise IP-100,2013-07-10 06:16:00,
2013-07-10 00:21:00,66.0,45.0,26.98,NE,45,1.0,8.0,47,0.00,,,0.00,Rainwise IP-100,2013-07-10 06:21:00,
2013-07-10 00:26:00,66.0,45.0,26.97,NNE,22,5.0,5.0,47,0.00,,,0.00,Rainwise IP-100,2013-07-10 06:26:00,
2013-07-10 00:31:00,65.0,44.0,26.97,NE,45,1.0,6.0,47,0.00,,,0.00,Rainwise IP-100,2013-07-10 06:31:00,
2013-07-10 00:36:00,65.0,44.0,26.97,ENE,67,4.0,5.0,47,0.00,,,0.00,Rainwise IP-100,2013-07-10 06:36:00,
2013-07-10 00:41:00,65.0,45.0,26.97,ENE,67,6.0,7.0,49,0.00,,,0.00,Rainwise IP-100,2013-07-10 06:41:00,
2013-07-10 00:46:00,65.0,46.0,26.98,East,90,5.0,6.0,50,0.00,,,0.00,Rainwise IP-100,2013-07-10 06:46:00,
2013-07-10 00:51:00,65.0,46.0,26.98,NE,45,2.0,6.0,50,0.00,,,0.00,Rainwise IP-100,2013-07-10 06:51:00,
2013-07-10 00:56:00,64.0,45.0,26.98,ESE,112,0.0,7.0,50,0.00,,,0.00,Rainwise IP-100,2013-07-10 06:56:00,
2013-07-10 01:01:00,64.0,46.0,26.98,East,90,3.0,7.0,52,0.00,,,0.00,Rainwise IP-100,2013-07-10 07:01:00,
2013-07-10 01:06:00,64.0,47.0,26.98,SE,135,0.0,7.0,53,0.00,,,0.00,Rainwise IP-100,2013-07-10 07:06:00,
2013-07-10 01:11:00,63.0,45.0,26.98,ESE,112,3.0,6.0,52,0.00,,,0.00,Rainwise IP-100,2013-07-10 07:11:00,
2013-07-10 01:16:00,63.0,45.0,26.99,South,180,3.0,4.0,52,0.00,,,0.00,Rainwise IP-100,2013-07-10 07:16:00,
2013-07-10 01:21:00,62.0,44.0,26.99,South,180,2.0,4.0,52,0.00,,,0.00,Rainwise IP-100,2013-07-10 07:21:00,
2013-07-10 01:26:00,62.0,45.0,27.00,South,180,2.0,3.0,53,0.00,,,0.00,Rainwise IP-100,2013-07-10 07:26:00,
2013-07-10 01:31:00,61.0,44.0,27.00,South,180,0.0,5.0,54,0.00,,,0.00,Rainwise IP-100,2013-07-10 07:31:00,
2013-07-10 01:36:00,61.0,44.0,27.01,ESE,112,3.0,3.0,54,0.00,,,0.00,Rainwise IP-100,2013-07-10 07:36:00,
2013-07-10 01:41:00,61.0,45.0,27.01,SSE,157,2.0,4.0,55,0.00,,,0.00,Rainwise IP-100,2013-07-10 07:41:00,
2013-07-10 01:46:00,60.0,44.0,27.01,SSE,157,1.0,3.0,55,0.00,,,0.00,Rainwise IP-100,2013-07-10 07:46:00,
2013-07-10 01:51:00,60.0,45.0,27.01,SSE,157,0.0,2.0,57,0.00,,,0.00,Rainwise IP-100,2013-07-10 07:51:00,
2013-07-10 01:56:00,59.0,43.0,27.01,SSE,157,0.0,0.0,56,0.00,,,0.00,Rainwise IP-100,2013-07-10 07:56:00,
2013-07-10 02:01:00,59.0,45.0,27.01,SSE,157,2.0,3.0,59,0.00,,,0.00,Rainwise IP-100,2013-07-10 08:01:00,
2013-07-10 02:06:00,59.0,44.0,27.01,East,90,0.0,3.0,58,0.00,,,0.00,Rainwise IP-100,2013-07-10 08:06:00,
2013-07-10 02:11:00,58.0,44.0,27.01,East,90,0.0,2.0,59,0.00,,,0.00,Rainwise IP-100,2013-07-10 08:11:00,
2013-07-10 02:16:00,58.0,44.0,27.01,ESE,112,3.0,4.0,59,0.00,,,0.00,Rainwise IP-100,2013-07-10 08:16:00,
2013-07-10 02:21:00,58.0,44.0,27.01,ESE,112,1.0,4.0,59,0.00,,,0.00,Rainwise IP-100,2013-07-10 08:21:00,
2013-07-10 02:26:00,58.0,44.0,27.01,ESE,112,0.0,2.0,60,0.00,,,0.00,Rainwise IP-100,2013-07-10 08:26:00,
2013-07-10 02:31:00,58.0,45.0,27.01,ESE,112,0.0,0.0,61,0.00,,,0.00,Rainwise IP-100,2013-07-10 08:31:00,
2013-07-10 02:36:00,58.0,45.0,27.01,ESE,112,0.0,0.0,62,0.00,,,0.00,Rainwise IP-100,2013-07-10 08:36:00,
2013-07-10 02:41:00,57.0,45.0,27.01,ESE,112,0.0,0.0,63,0.00,,,0.00,Rainwise IP-100,2013-07-10 08:41:00,
2013-07-10 02:46:00,57.0,46.0,27.02,SSW,202,0.0,0.0,65,0.00,,,0.00,Rainwise IP-100,2013-07-10 08:46:00,
2013-07-10 02:51:00,57.0,46.0,27.02,West,270,0.0,0.0,66,0.00,,,0.00,Rainwise IP-100,2013-07-10 08:51:00,
2013-07-10 02:56:00,57.0,45.0,27.01,West,270,0.0,0.0,64,0.00,,,0.00,Rainwise IP-100,2013-07-10 08:56:00,
2013-07-10 03:01:00,57.0,46.0,27.01,West,270,0.0,0.0,66,0.00,,,0.00,Rainwise IP-100,2013-07-10 09:01:00,
2013-07-10 03:06:00,56.0,45.0,27.02,West,270,0.0,0.0,66,0.00,,,0.00,Rainwise IP-100,2013-07-10 09:06:00,
2013-07-10 03:11:00,56.0,46.0,27.02,West,270,0.0,0.0,68,0.00,,,0.00,Rainwise IP-100,2013-07-10 09:11:00,
2013-07-10 03:16:00,56.0,45.0,27.01,West,270,0.0,0.0,67,0.00,,,0.00,Rainwise IP-100,2013-07-10 09:16:00,
2013-07-10 03:21:00,56.0,45.0,27.01,West,270,0.0,2.0,67,0.00,,,0.00,Rainwise IP-100,2013-07-10 09:21:00,
2013-07-10 03:26:00,56.0,45.0,27.01,West,270,2.0,4.0,66,0.00,,,0.00,Rainwise IP-100,2013-07-10 09:26:00,
2013-07-10 03:31:00,56.0,46.0,27.01,West,270,2.0,3.0,68,0.00,,,0.00,Rainwise IP-100,2013-07-10 09:31:00,
2013-07-10 03:36:00,56.0,45.0,27.01,West,270,0.0,2.0,67,0.00,,,0.00,Rainwise IP-100,2013-07-10 09:36:00,
2013-07-10 03:41:00,56.0,46.0,27.01,ENE,67,0.0,2.0,68,0.00,,,0.00,Rainwise IP-100,2013-07-10 09:41:00,
2013-07-10 03:46:00,56.0,46.0,27.02,NE,45,2.0,5.0,68,0.00,,,0.00,Rainwise IP-100,2013-07-10 09:46:00,
2013-07-10 03:51:00,57.0,46.0,27.02,ESE,112,0.0,3.0,66,0.00,,,0.00,Rainwise IP-100,2013-07-10 09:51:00,
2013-07-10 03:56:00,56.0,45.0,27.01,ESE,112,0.0,0.0,66,0.00,,,0.00,Rainwise IP-100,2013-07-10 09:56:00,
2013-07-10 04:01:00,56.0,46.0,27.01,ENE,67,0.0,1.0,68,0.00,,,0.00,Rainwise IP-100,2013-07-10 10:01:00,
2013-07-10 04:06:00,56.0,46.0,27.02,North,360,3.0,4.0,68,0.00,,,0.00,Rainwise IP-100,2013-07-10 10:06:00,
2013-07-10 04:11:00,56.0,46.0,27.02,NNE,22,0.0,4.0,68,0.00,,,0.00,Rainwise IP-100,2013-07-10 10:11:00,
2013-07-10 04:16:00,56.0,46.0,27.03,NNE,22,0.0,1.0,68,0.00,,,0.00,Rainwise IP-100,2013-07-10 10:16:00,
2013-07-10 04:21:00,56.0,46.0,27.03,NNE,22,0.0,1.0,69,0.00,,,0.00,Rainwise IP-100,2013-07-10 10:21:00,
2013-07-10 04:26:00,55.0,45.0,27.03,NNE,22,0.0,0.0,68,0.00,,,0.00,Rainwise IP-100,2013-07-10 10:26:00,
2013-07-10 04:31:00,55.0,45.0,27.03,ENE,67,0.0,4.0,68,0.00,,,0.00,Rainwise IP-100,2013-07-10 10:31:00,
2013-07-10 04:36:00,55.0,45.0,27.03,ENE,67,0.0,1.0,68,0.00,,,0.00,Rainwise IP-100,2013-07-10 10:36:00,
2013-07-10 04:41:00,55.0,45.0,27.03,ENE,67,0.0,0.0,68,0.00,,,0.00,Rainwise IP-100,2013-07-10 10:41:00,
2013-07-10 04:46:00,55.0,45.0,27.03,ENE,67,2.0,3.0,69,0.00,,,0.00,Rainwise IP-100,2013-07-10 10:46:00,
2013-07-10 04:51:00,55.0,46.0,27.03,ENE,67,0.0,2.0,70,0.00,,,0.00,Rainwise IP-100,2013-07-10 10:51:00,
2013-07-10 04:56:00,54.0,45.0,27.04,ESE,112,1.0,3.0,71,0.00,,,0.00,Rainwise IP-100,2013-07-10 10:56:00,
2013-07-10 05:01:00,54.0,45.0,27.04,SE,135,2.0,3.0,71,0.00,,,0.00,Rainwise IP-100,2013-07-10 11:01:00,
2013-07-10 05:06:00,54.0,44.0,27.04,SE,135,0.0,3.0,69,0.00,,,0.00,Rainwise IP-100,2013-07-10 11:06:00,
2013-07-10 05:11:00,53.0,42.0,27.04,SE,135,0.0,0.0,68,0.00,,,0.00,Rainwise IP-100,2013-07-10 11:11:00,
2013-07-10 05:16:00,53.0,43.0,27.04,SE,135,0.0,0.0,71,0.00,,,0.00,Rainwise IP-100,2013-07-10 11:16:00,
2013-07-10 05:21:00,52.0,43.0,27.04,SE,135,0.0,0.0,72,0.00,,,0.00,Rainwise IP-100,2013-07-10 11:21:00,
2013-07-10 05:26:00,52.0,43.0,27.04,SE,135,0.0,3.0,73,0.00,,,0.00,Rainwise IP-100,2013-07-10 11:26:00,
2013-07-10 05:31:00,52.0,43.0,27.04,SE,135,0.0,0.0,73,0.00,,,0.00,Rainwise IP-100,2013-07-10 11:31:00,
2013-07-10 05:36:00,52.0,43.0,27.05,SE,135,0.0,0.0,73,0.00,,,0.00,Rainwise IP-100,2013-07-10 11:36:00,
2013-07-10 05:41:00,51.0,43.0,27.05,SE,135,0.0,0.0,74,0.00,,,0.00,Rainwise IP-100,2013-07-10 11:41:00,
2013-07-10 05:46:00,51.0,44.0,27.05,SE,135,0.0,0.0,76,0.00,,,0.00,Rainwise IP-100,2013-07-10 11:46:00,
2013-07-10 05:51:00,51.0,44.0,27.05,SE,135,0.0,0.0,77,0.00,,,0.00,Rainwise IP-100,2013-07-10 11:51:00,
2013-07-10 05:56:00,51.0,44.0,27.05,SE,135,0.0,0.0,77,0.00,,,0.00,Rainwise IP-100,2013-07-10 11:56:00,
2013-07-10 06:01:00,51.0,44.0,27.05,SE,135,0.0,0.0,77,0.00,,,0.00,Rainwise IP-100,2013-07-10 12:01:00,
2013-07-10 06:06:00,51.0,44.0,27.05,SE,135,0.0,0.0,77,0.00,,,0.00,Rainwise IP-100,2013-07-10 12:06:00,
2013-07-10 06:11:00,51.0,44.0,27.05,SE,135,0.0,0.0,77,0.00,,,0.00,Rainwise IP-100,2013-07-10 12:11:00,
2013-07-10 06:16:00,51.0,45.0,27.05,SE,135,0.0,0.0,78,0.00,,,0.00,Rainwise IP-100,2013-07-10 12:16:00,
2013-07-10 06:21:00,51.0,45.0,27.05,SE,135,0.0,0.0,78,0.00,,,0.00,Rainwise IP-100,2013-07-10 12:21:00,
2013-07-10 06:26:00,51.0,45.0,27.05,SE,135,0.0,0.0,80,0.00,,,0.00,Rainwise IP-100,2013-07-10 12:26:00,
2013-07-10 06:31:00,51.0,45.0,27.05,SE,135,0.0,0.0,78,0.00,,,0.00,Rainwise IP-100,2013-07-10 12:31:00,
2013-07-10 06:36:00,51.0,45.0,27.05,SE,135,0.0,0.0,80,0.00,,,0.00,Rainwise IP-100,2013-07-10 12:36:00,
2013-07-10 06:41:00,52.0,45.0,27.05,SE,135,0.0,1.0,78,0.00,,,0.00,Rainwise IP-100,2013-07-10 12:41:00,
2013-07-10 06:46:00,54.0,47.0,27.04,SE,135,0.0,0.0,76,0.00,,,0.00,Rainwise IP-100,2013-07-10 12:46:00,
2013-07-10 06:51:00,55.0,46.0,27.04,SE,135,0.0,1.0,71,0.00,,,0.00,Rainwise IP-100,2013-07-10 12:51:00,
2013-07-10 06:56:00,56.0,45.0,27.03,East,90,1.0,5.0,67,0.00,,,0.00,Rainwise IP-100,2013-07-10 12:56:00,
2013-07-10 07:01:00,57.0,45.0,27.03,East,90,3.0,5.0,64,0.00,,,0.00,Rainwise IP-100,2013-07-10 13:01:00,
2013-07-10 07:05:00,58.0,46.0,27.02,East,90,4.0,5.0,63,0.00,,,0.00,Rainwise IP-100,2013-07-10 13:05:00,
2013-07-10 07:10:00,58.0,46.0,27.02,East,90,0.0,5.0,63,0.00,,,0.00,Rainwise IP-100,2013-07-10 13:10:00,
2013-07-10 07:15:00,59.0,46.0,27.02,East,90,0.0,0.0,61,0.00,,,0.00,Rainwise IP-100,2013-07-10 13:15:00,
2013-07-10 07:20:00,59.0,47.0,27.02,WSW,247,0.0,1.0,63,0.00,,,0.00,Rainwise IP-100,2013-07-10 13:20:00,
2013-07-10 07:25:00,60.0,46.0,27.02,WSW,247,0.0,2.0,59,0.00,,,0.00,Rainwise IP-100,2013-07-10 13:25:00,
2013-07-10 07:30:00,61.0,47.0,27.02,WSW,247,0.0,0.0,60,0.00,,,0.00,Rainwise IP-100,2013-07-10 13:30:00,
2013-07-10 07:35:00,62.0,47.5,27.01,West,270,0.0,2.0,59,0.00,,,0.00,Rainwise IP-100,2013-07-10 13:35:00,
2013-07-10 07:40:00,62.0,47.0,27.01,SSE,157,4.0,4.0,57,0.00,,,0.00,Rainwise IP-100,2013-07-10 13:40:00,
2013-07-10 07:45:00,62.0,46.0,27.01,SSE,157,1.0,4.0,55,0.00,,,0.00,Rainwise IP-100,2013-07-10 13:45:00,
2013-07-10 07:50:00,63.0,47.0,27.01,ENE,67,2.0,2.0,55,0.00,,,0.00,Rainwise IP-100,2013-07-10 13:50:00,
2013-07-10 07:55:00,63.0,46.0,27.01,South,180,1.0,4.0,54,0.00,,,0.00,Rainwise IP-100,2013-07-10 13:55:00,
2013-07-10 08:00:00,64.0,47.5,27.01,SW,225,2.0,4.0,55,0.00,,,0.00,Rainwise IP-100,2013-07-10 14:00:00,
2013-07-10 08:05:00,64.0,47.0,27.01,WSW,247,3.0,4.0,54,0.00,,,0.00,Rainwise IP-100,2013-07-10 14:05:00,
2013-07-10 08:10:00,63.0,46.0,27.01,WSW,247,0.0,5.0,54,0.00,,,0.00,Rainwise IP-100,2013-07-10 14:10:00,
2013-07-10 08:15:00,64.0,46.0,27.00,SSW,202,4.0,4.0,52,0.00,,,0.00,Rainwise IP-100,2013-07-10 14:15:00,
2013-07-10 08:20:00,64.0,47.0,27.00,SSW,202,2.0,5.0,53,0.00,,,0.00,Rainwise IP-100,2013-07-10 14:20:00,
2013-07-10 08:25:00,64.0,46.0,27.00,SSW,202,1.0,4.0,52,0.00,,,0.00,Rainwise IP-100,2013-07-10 14:25:00,
2013-07-10 08:30:00,65.0,46.0,27.00,SSE,157,2.0,5.0,50,0.00,,,0.00,Rainwise IP-100,2013-07-10 14:30:00,
2013-07-10 08:35:00,66.0,46.0,27.00,South,180,3.0,6.0,49,0.00,,,0.00,Rainwise IP-100,2013-07-10 14:35:00,
2013-07-10 08:40:00,66.0,46.0,27.00,SW,225,1.0,5.0,49,0.00,,,0.00,Rainwise IP-100,2013-07-10 14:40:00,
2013-07-10 08:45:00,67.0,46.0,26.99,WSW,247,3.0,5.0,47,0.00,,,0.00,Rainwise IP-100,2013-07-10 14:45:00,
2013-07-10 08:50:00,67.0,46.0,26.99,NE,45,2.0,5.0,47,0.00,,,0.00,Rainwise IP-100,2013-07-10 14:50:00,
2013-07-10 08:55:00,68.0,46.0,26.99,ESE,112,0.0,4.0,45,0.00,,,0.00,Rainwise IP-100,2013-07-10 14:55:00,
2013-07-10 09:00:00,68.0,46.0,26.99,South,180,0.0,5.0,45,0.00,,,0.00,Rainwise IP-100,2013-07-10 15:00:00,
2013-07-10 09:05:00,69.0,46.0,26.98,ESE,112,0.0,4.0,43,0.00,,,0.00,Rainwise IP-100,2013-07-10 15:05:00,
2013-07-10 09:10:00,69.0,46.0,26.98,North,360,0.0,3.0,43,0.00,,,0.00,Rainwise IP-100,2013-07-10 15:10:00,
2013-07-10 09:15:00,71.0,46.0,26.97,ESE,112,0.0,2.0,41,0.00,,,0.00,Rainwise IP-100,2013-07-10 15:15:00,
2013-07-10 09:20:00,70.0,44.0,26.97,ESE,112,1.0,5.0,39,0.00,,,0.00,Rainwise IP-100,2013-07-10 15:20:00,
2013-07-10 09:25:00,71.0,45.0,26.97,ESE,112,2.0,6.0,39,0.00,,,0.00,Rainwise IP-100,2013-07-10 15:25:00,
2013-07-10 09:30:00,71.0,45.0,26.97,East,90,0.0,4.0,39,0.00,,,0.00,Rainwise IP-100,2013-07-10 15:30:00,
2013-07-10 09:35:00,72.0,44.0,26.96,SE,135,2.0,5.0,37,0.00,,,0.00,Rainwise IP-100,2013-07-10 15:35:00,
2013-07-10 09:40:00,72.0,46.0,26.96,NNE,22,3.0,6.0,39,0.00,,,0.00,Rainwise IP-100,2013-07-10 15:40:00,
2013-07-10 09:45:00,72.0,43.0,26.96,East,90,0.0,4.0,35,0.00,,,0.00,Rainwise IP-100,2013-07-10 15:45:00,
2013-07-10 09:50:00,73.0,45.0,26.96,NE,45,1.0,3.0,36,0.00,,,0.00,Rainwise IP-100,2013-07-10 15:50:00,
2013-07-10 09:55:00,73.0,43.0,26.96,NE,45,1.0,7.0,34,0.00,,,0.00,Rainwise IP-100,2013-07-10 15:55:00,
2013-07-10 10:00:00,73.0,45.0,26.96,ESE,112,2.0,6.0,37,0.00,,,0.00,Rainwise IP-100,2013-07-10 16:00:00,
2013-07-10 10:05:00,74.0,44.0,26.95,South,180,0.0,3.0,34,0.00,,,0.00,Rainwise IP-100,2013-07-10 16:05:00,
2013-07-10 10:10:00,74.0,44.0,26.95,SE,135,0.0,4.0,34,0.00,,,0.00,Rainwise IP-100,2013-07-10 16:10:00,
2013-07-10 10:15:00,75.0,43.0,26.94,NNW,337,2.0,4.0,32,0.00,,,0.00,Rainwise IP-100,2013-07-10 16:15:00,
2013-07-10 10:20:00,76.0,44.0,26.94,SSW,202,0.0,5.0,32,0.00,,,0.00,Rainwise IP-100,2013-07-10 16:20:00,
2013-07-10 10:25:00,76.0,44.0,26.94,NNW,337,0.0,4.0,32,0.00,,,0.00,Rainwise IP-100,2013-07-10 16:25:00,
2013-07-10 10:30:00,76.0,43.0,26.94,South,180,0.0,6.0,31,0.00,,,0.00,Rainwise IP-100,2013-07-10 16:30:00,
2013-07-10 10:35:00,76.0,43.0,26.94,SSE,157,4.0,6.0,31,0.00,,,0.00,Rainwise IP-100,2013-07-10 16:35:00,
2013-07-10 10:40:00,76.0,42.0,26.94,WSW,247,0.0,6.0,30,0.00,,,0.00,Rainwise IP-100,2013-07-10 16:40:00,
2013-07-10 10:45:00,77.0,42.0,26.93,WSW,247,0.0,5.0,29,0.00,,,0.00,Rainwise IP-100,2013-07-10 16:45:00,
2013-07-10 10:50:00,78.0,42.0,26.93,ESE,112,0.0,6.0,28,0.00,,,0.00,Rainwise IP-100,2013-07-10 16:50:00,
2013-07-10 10:55:00,78.0,41.0,26.93,SSE,157,0.0,6.0,27,0.00,,,0.00,Rainwise IP-100,2013-07-10 16:55:00,
2013-07-10 11:00:00,75.0,41.0,26.93,WNW,292,6.0,7.0,30,0.00,,,0.00,Rainwise IP-100,2013-07-10 17:00:00,
2013-07-10 11:05:00,76.0,42.0,26.93,West,270,6.0,9.0,30,0.00,,,0.00,Rainwise IP-100,2013-07-10 17:05:00,
2013-07-10 11:10:00,76.0,42.0,26.93,West,270,2.0,8.0,30,0.00,,,0.00,Rainwise IP-100,2013-07-10 17:10:00,
2013-07-10 11:15:00,76.0,42.0,26.93,WNW,292,2.0,7.0,30,0.00,,,0.00,Rainwise IP-100,2013-07-10 17:15:00,
2013-07-10 11:20:00,77.0,40.0,26.93,North,360,2.0,6.0,27,0.00,,,0.00,Rainwise IP-100,2013-07-10 17:20:00,
2013-07-10 11:25:00,79.0,41.0,26.90,NNE,22,0.0,5.0,26,0.00,,,0.00,Rainwise IP-100,2013-07-10 17:25:00,
2013-07-10 11:30:00,80.0,43.0,26.90,SW,225,0.0,5.0,27,0.00,,,0.00,Rainwise IP-100,2013-07-10 17:30:00,
2013-07-10 11:35:00,81.0,44.0,26.89,West,270,3.0,5.0,27,0.00,,,0.00,Rainwise IP-100,2013-07-10 17:35:00,
2013-07-10 11:40:00,81.0,43.0,26.89,SSE,157,5.0,6.0,26,0.00,,,0.00,Rainwise IP-100,2013-07-10 17:40:00,
2013-07-10 11:45:00,79.0,42.0,26.90,West,270,4.0,7.0,27,0.00,,,0.00,Rainwise IP-100,2013-07-10 17:45:00,
2013-07-10 11:50:00,79.0,42.0,26.90,West,270,7.0,7.0,27,0.00,,,0.00,Rainwise IP-100,2013-07-10 17:50:00,
2013-07-10 11:55:00,79.0,42.0,26.89,WNW,292,3.0,7.0,27,0.00,,,0.00,Rainwise IP-100,2013-07-10 17:55:00,
2013-07-10 12:00:00,81.0,44.0,26.89,SE,135,2.0,4.0,27,0.00,,,0.00,Rainwise IP-100,2013-07-10 18:00:00,
2013-07-10 12:05:00,81.0,43.0,26.88,SSE,157,4.0,6.0,26,0.00,,,0.00,Rainwise IP-100,2013-07-10 18:05:00,
2013-07-10 12:10:00,82.0,45.0,26.88,ESE,112,0.0,4.0,27,0.00,,,0.00,Rainwise IP-100,2013-07-10 18:10:00,
2013-07-10 12:15:00,82.0,43.0,26.88,West,270,5.0,6.0,25,0.00,,,0.00,Rainwise IP-100,2013-07-10 18:15:00,
2013-07-10 12:20:00,81.0,43.0,26.88,North,360,1.0,8.0,26,0.00,,,0.00,Rainwise IP-100,2013-07-10 18:20:00,
2013-07-10 12:25:00,83.0,44.0,26.86,WSW,247,3.0,4.0,25,0.00,,,0.00,Rainwise IP-100,2013-07-10 18:25:00,
2013-07-10 12:30:00,83.0,45.0,26.86,West,270,0.0,4.0,26,0.00,,,0.00,Rainwise IP-100,2013-07-10 18:30:00,
2013-07-10 12:35:00,83.0,42.0,26.87,North,360,6.0,7.0,24,0.00,,,0.00,Rainwise IP-100,2013-07-10 18:35:00,
2013-07-10 12:40:00,84.0,43.0,26.87,NNW,337,6.0,7.0,24,0.00,,,0.00,Rainwise IP-100,2013-07-10 18:40:00,
2013-07-10 12:45:00,84.0,43.0,26.86,NNW,337,6.0,7.0,24,0.00,,,0.00,Rainwise IP-100,2013-07-10 18:45:00,
2013-07-10 12:50:00,83.0,45.0,26.86,WNW,292,1.0,8.0,26,0.00,,,0.00,Rainwise IP-100,2013-07-10 18:50:00,
2013-07-10 12:55:00,83.0,44.0,26.85,West,270,2.0,7.0,25,0.00,,,0.00,Rainwise IP-100,2013-07-10 18:55:00,
2013-07-10 13:00:00,83.0,46.0,26.85,WNW,292,3.0,7.0,27,0.00,,,0.00,Rainwise IP-100,2013-07-10 19:00:00,
2013-07-10 13:05:00,84.0,43.0,26.83,NE,45,6.0,7.0,24,0.00,,,0.00,Rainwise IP-100,2013-07-10 19:05:00,
2013-07-10 13:10:00,83.0,44.0,26.83,NNW,337,0.0,7.0,25,0.00,,,0.00,Rainwise IP-100,2013-07-10 19:10:00,
2013-07-10 13:15:00,86.0,44.0,26.82,SW,225,1.0,2.0,23,0.00,,,0.00,Rainwise IP-100,2013-07-10 19:15:00,
2013-07-10 13:20:00,87.0,43.0,26.82,ENE,67,6.0,7.0,22,0.00,,,0.00,Rainwise IP-100,2013-07-10 19:20:00,
2013-07-10 13:25:00,87.0,43.0,26.82,WNW,292,7.0,7.0,22,0.00,,,0.00,Rainwise IP-100,2013-07-10 19:25:00,
2013-07-10 13:30:00,86.0,43.0,26.82,North,360,0.0,7.0,22,0.00,,,0.00,Rainwise IP-100,2013-07-10 19:30:00,
2013-07-10 13:35:00,87.0,43.0,26.82,East,90,1.0,7.0,22,0.00,,,0.00,Rainwise IP-100,2013-07-10 19:35:00,
2013-07-10 13:40:00,86.0,45.0,26.81,NE,45,4.0,6.0,24,0.00,,,0.00,Rainwise IP-100,2013-07-10 19:40:00,
2013-07-10 13:45:00,87.0,43.0,26.81,North,360,0.0,7.0,22,0.00,,,0.00,Rainwise IP-100,2013-07-10 19:45:00,
2013-07-10 13:50:00,88.0,44.0,26.80,WNW,292,1.0,6.0,22,0.00,,,0.00,Rainwise IP-100,2013-07-10 19:50:00,
2013-07-10 13:55:00,88.0,43.0,26.79,West,270,3.0,7.0,21,0.00,,,0.00,Rainwise IP-100,2013-07-10 19:55:00,
2013-07-10 14:00:00,88.0,43.0,26.79,NW,315,6.0,8.0,21,0.00,,,0.00,Rainwise IP-100,2013-07-10 20:00:00,
2013-07-10 14:05:00,89.0,40.0,26.78,NNW,337,1.0,7.0,18,0.00,,,0.00,Rainwise IP-100,2013-07-10 20:05:00,
2013-07-10 14:10:00,88.0,40.0,26.78,West,270,1.0,8.0,19,0.00,,,0.00,Rainwise IP-100,2013-07-10 20:10:00,
2013-07-10 14:15:00,89.0,38.0,26.78,SE,135,1.0,7.0,17,0.00,,,0.00,Rainwise IP-100,2013-07-10 20:15:00,
2013-07-10 14:20:00,89.0,37.0,26.78,West,270,7.0,7.0,16,0.00,,,0.00,Rainwise IP-100,2013-07-10 20:20:00,
2013-07-10 14:25:00,89.0,37.0,26.78,SSW,202,0.0,9.0,16,0.00,,,0.00,Rainwise IP-100,2013-07-10 20:25:00,
2013-07-10 14:30:00,88.0,38.0,26.78,NW,315,4.0,7.0,17,0.00,,,0.00,Rainwise IP-100,2013-07-10 20:30:00,
2013-07-10 14:35:00,90.0,38.0,26.76,South,180,2.0,8.0,16,0.00,,,0.00,Rainwise IP-100,2013-07-10 20:35:00,
2013-07-10 14:40:00,91.0,40.0,26.76,NE,45,4.0,5.0,17,0.00,,,0.00,Rainwise IP-100,2013-07-10 20:40:00,
2013-07-10 14:45:00,91.0,39.0,26.76,NE,45,6.0,6.0,16,0.00,,,0.00,Rainwise IP-100,2013-07-10 20:45:00,
2013-07-10 14:50:00,91.0,39.0,26.75,ENE,67,4.0,7.0,16,0.00,,,0.00,Rainwise IP-100,2013-07-10 20:50:00,
2013-07-10 14:55:00,91.0,39.0,26.75,NNE,22,0.0,8.0,16,0.00,,,0.00,Rainwise IP-100,2013-07-10 20:55:00,
2013-07-10 15:00:00,91.0,39.0,26.75,NW,315,3.0,7.0,16,0.00,,,0.00,Rainwise IP-100,2013-07-10 21:00:00,
2013-07-10 15:05:00,92.0,42.0,26.74,East,90,1.0,6.0,18,0.00,,,0.00,Rainwise IP-100,2013-07-10 21:05:00,
2013-07-10 15:10:00,92.0,39.0,26.74,NE,45,6.0,7.0,16,0.00,,,0.00,Rainwise IP-100,2013-07-10 21:10:00,
2013-07-10 15:15:00,93.0,38.0,26.74,North,360,4.0,7.0,15,0.00,,,0.00,Rainwise IP-100,2013-07-10 21:15:00,
2013-07-10 15:20:00,92.0,38.0,26.74,WNW,292,5.0,9.0,15,0.00,,,0.00,Rainwise IP-100,2013-07-10 21:20:00,
2013-07-10 15:25:00,93.0,35.0,26.73,WSW,247,6.0,7.0,13,0.00,,,0.00,Rainwise IP-100,2013-07-10 21:25:00,
2013-07-10 15:30:00,92.0,35.0,26.73,SE,135,4.0,7.0,13,0.00,,,0.00,Rainwise IP-100,2013-07-10 21:30:00,
2013-07-10 15:35:00,93.0,35.0,26.73,SW,225,2.0,6.0,13,0.00,,,0.00,Rainwise IP-100,2013-07-10 21:35:00,
2013-07-10 15:40:00,94.0,36.0,26.73,SW,225,3.0,7.0,13,0.00,,,0.00,Rainwise IP-100,2013-07-10 21:40:00,
2013-07-10 15:45:00,93.0,37.0,26.73,NNW,337,7.0,10.0,14,0.00,,,0.00,Rainwise IP-100,2013-07-10 21:45:00,
2013-07-10 15:50:00,92.0,38.0,26.73,WNW,292,6.0,11.0,15,0.00,,,0.00,Rainwise IP-100,2013-07-10 21:50:00,
2013-07-10 15:55:00,92.0,38.0,26.72,NE,45,5.0,9.0,15,0.00,,,0.00,Rainwise IP-100,2013-07-10 21:55:00,
2013-07-10 16:00:00,93.0,37.0,26.72,North,360,6.0,10.0,14,0.00,,,0.00,Rainwise IP-100,2013-07-10 22:00:00,
2013-07-10 16:05:00,93.0,35.0,26.72,West,270,9.0,12.0,13,0.00,,,0.00,Rainwise IP-100,2013-07-10 22:05:00,
2013-07-10 16:10:00,93.0,35.0,26.72,NW,315,2.0,10.0,13,0.00,,,0.00,Rainwise IP-100,2013-07-10 22:10:00,
2013-07-10 16:15:00,94.0,33.0,26.71,NW,315,2.0,10.0,12,0.00,,,0.00,Rainwise IP-100,2013-07-10 22:15:00,
2013-07-10 16:20:00,93.0,35.0,26.71,WSW,247,7.0,9.0,13,0.00,,,0.00,Rainwise IP-100,2013-07-10 22:20:00,
2013-07-10 16:25:00,92.0,35.0,26.72,WSW,247,7.0,10.0,13,0.00,,,0.00,Rainwise IP-100,2013-07-10 22:25:00,
2013-07-10 16:30:00,92.0,35.0,26.72,WNW,292,5.0,9.0,13,0.00,,,0.00,Rainwise IP-100,2013-07-10 22:30:00,
2013-07-10 16:35:00,93.0,35.0,26.71,NNW,337,6.0,9.0,13,0.00,,,0.00,Rainwise IP-100,2013-07-10 22:35:00,
2013-07-10 16:40:00,93.0,38.0,26.71,WNW,292,4.0,9.0,15,0.00,,,0.00,Rainwise IP-100,2013-07-10 22:40:00,
2013-07-10 16:45:00,94.0,36.0,26.70,NNW,337,6.0,11.0,13,0.00,,,0.00,Rainwise IP-100,2013-07-10 22:45:00,
2013-07-10 16:50:00,94.0,36.0,26.70,NNE,22,6.0,11.0,13,0.00,,,0.00,Rainwise IP-100,2013-07-10 22:50:00,
2013-07-10 16:55:00,95.0,37.0,26.69,NNE,22,3.0,9.0,13,0.00,,,0.00,Rainwise IP-100,2013-07-10 22:55:00,
2013-07-10 17:00:00,95.0,37.0,26.69,East,90,1.0,7.0,13,0.00,,,0.00,Rainwise IP-100,2013-07-10 23:00:00,
2013-07-10 17:05:00,96.0,37.0,26.69,NW,315,3.0,7.0,13,0.00,,,0.00,Rainwise IP-100,2013-07-10 23:05:00,
2013-07-10 17:10:00,96.0,39.0,26.69,ESE,112,1.0,9.0,14,0.00,,,0.00,Rainwise IP-100,2013-07-10 23:10:00,
2013-07-10 17:15:00,96.0,37.0,26.69,SE,135,1.0,8.0,13,0.00,,,0.00,Rainwise IP-100,2013-07-10 23:15:00,
2013-07-10 17:20:00,95.0,37.0,26.69,SE,135,3.0,7.0,13,0.00,,,0.00,Rainwise IP-100,2013-07-10 23:20:00,
2013-07-10 17:25:00,95.0,37.0,26.69,SSE,157,7.0,8.0,13,0.00,,,0.00,Rainwise IP-100,2013-07-10 23:25:00,
2013-07-10 17:30:00,95.0,37.0,26.69,SSW,202,1.0,8.0,13,0.00,,,0.00,Rainwise IP-100,2013-07-10 23:30:00,
2013-07-10 17:35:00,96.0,37.0,26.67,SE,135,3.0,6.0,13,0.00,,,0.00,Rainwise IP-100,2013-07-10 23:35:00,
2013-07-10 17:40:00,96.0,37.0,26.67,NNW,337,0.0,6.0,13,0.00,,,0.00,Rainwise IP-100,2013-07-10 23:40:00,
2013-07-10 17:45:00,97.0,38.0,26.66,SSW,202,0.0,4.0,13,0.00,,,0.00,Rainwise IP-100,2013-07-10 23:45:00,
2013-07-10 17:50:00,97.0,36.0,26.66,South,180,6.0,6.0,12,0.00,,,0.00,Rainwise IP-100,2013-07-10 23:50:00,
2013-07-10 17:55:00,96.0,37.0,26.67,East,90,1.0,6.0,13,0.00,,,0.00,Rainwise IP-100,2013-07-10 23:55:00,
2013-07-10 18:00:00,95.0,37.0,26.67,ENE,67,3.0,6.0,13,0.00,,,0.00,Rainwise IP-100,2013-07-11 00:00:00,
2013-07-10 18:05:00,95.0,37.0,26.67,NE,45,3.0,6.0,13,0.00,,,0.00,Rainwise IP-100,2013-07-11 00:05:00,
2013-07-10 18:10:00,95.0,37.0,26.67,NW,315,0.0,6.0,13,0.00,,,0.00,Rainwise IP-100,2013-07-11 00:10:00,
2013-07-10 18:15:00,95.0,38.0,26.65,North,360,1.0,6.0,14,0.00,,,0.00,Rainwise IP-100,2013-07-11 00:15:00,
2013-07-10 18:20:00,95.0,37.0,26.65,ENE,67,2.0,4.0,13,0.00,,,0.00,Rainwise IP-100,2013-07-11 00:20:00,
2013-07-10 18:25:00,95.0,38.0,26.65,ENE,67,0.0,4.0,14,0.00,,,0.00,Rainwise IP-100,2013-07-11 00:25:00,
2013-07-10 18:30:00,95.0,38.0,26.65,ENE,67,0.0,0.0,14,0.00,,,0.00,Rainwise IP-100,2013-07-11 00:30:00,
2013-07-10 18:35:00,95.0,40.0,26.64,ENE,67,0.0,0.0,15,0.00,,,0.00,Rainwise IP-100,2013-07-11 00:35:00,
2013-07-10 18:40:00,95.0,42.0,26.64,ENE,67,0.0,0.0,16,0.00,,,0.00,Rainwise IP-100,2013-07-11 00:40:00,
2013-07-10 18:45:00,96.0,39.0,26.63,ENE,67,0.0,2.0,14,0.00,,,0.00,Rainwise IP-100,2013-07-11 00:45:00,
2013-07-10 18:50:00,96.0,39.0,26.63,NW,315,1.0,3.0,14,0.00,,,0.00,Rainwise IP-100,2013-07-11 00:50:00,
2013-07-10 18:55:00,96.0,39.0,26.64,NW,315,0.0,3.0,14,0.00,,,0.00,Rainwise IP-100,2013-07-11 00:55:00,
2013-07-10 19:00:00,96.0,41.0,26.64,West,270,0.0,4.0,15,0.00,,,0.00,Rainwise IP-100,2013-07-11 01:00:00,
2013-07-10 19:05:00,97.0,38.0,26.64,South,180,4.0,4.0,13,0.00,,,0.00,Rainwise IP-100,2013-07-11 01:05:00,
2013-07-10 19:10:00,96.0,37.0,26.64,South,180,0.0,5.0,13,0.00,,,0.00,Rainwise IP-100,2013-07-11 01:10:00,
2013-07-10 19:15:00,97.0,40.0,26.62,NW,315,3.0,3.0,14,0.00,,,0.00,Rainwise IP-100,2013-07-11 01:15:00,
2013-07-10 19:20:00,97.0,38.0,26.62,NW,315,5.0,7.0,13,0.00,,,0.00,Rainwise IP-100,2013-07-11 01:20:00,
2013-07-10 19:25:00,96.0,37.0,26.63,North,360,4.0,10.0,13,0.00,,,0.00,Rainwise IP-100,2013-07-11 01:25:00,
2013-07-10 19:30:00,96.0,37.0,26.63,ENE,67,3.0,6.0,13,0.00,,,0.00,Rainwise IP-100,2013-07-11 01:30:00,
2013-07-10 19:35:00,96.0,37.0,26.65,NNW,337,6.0,6.0,13,0.00,,,0.00,Rainwise IP-100,2013-07-11 01:35:00,
2013-07-10 19:40:00,95.0,37.0,26.65,NNW,337,4.0,7.0,13,0.00,,,0.00,Rainwise IP-100,2013-07-11 01:40:00,
2013-07-10 19:45:00,94.0,36.0,26.63,NW,315,2.0,6.0,13,0.00,,,0.00,Rainwise IP-100,2013-07-11 01:45:00,
2013-07-10 19:50:00,93.0,37.0,26.63,WNW,292,2.0,6.0,14,0.00,,,0.00,Rainwise IP-100,2013-07-11 01:50:00,
2013-07-10 19:55:00,92.0,39.0,26.65,WNW,292,1.0,5.0,16,0.00,,,0.00,Rainwise IP-100,2013-07-11 01:55:00,
2013-07-10 20:00:00,92.0,39.0,26.65,WNW,292,1.0,5.0,16,0.00,,,0.00,Rainwise IP-100,2013-07-11 02:00:00,
2013-07-10 20:05:00,92.0,39.0,26.63,NNW,337,2.0,7.0,16,0.00,,,0.00,Rainwise IP-100,2013-07-11 02:05:00,
2013-07-10 20:10:00,92.0,39.0,26.63,NW,315,3.0,7.0,16,0.00,,,0.00,Rainwise IP-100,2013-07-11 02:10:00,
2013-07-10 20:15:00,92.0,41.0,26.64,West,270,3.0,7.0,17,0.00,,,0.00,Rainwise IP-100,2013-07-11 02:15:00,
2013-07-10 20:20:00,91.0,40.0,26.64,NW,315,4.0,7.0,17,0.00,,,0.00,Rainwise IP-100,2013-07-11 02:20:00,
2013-07-10 20:25:00,91.0,41.0,26.64,West,270,3.0,9.0,18,0.00,,,0.00,Rainwise IP-100,2013-07-11 02:25:00,
2013-07-10 20:30:00,91.0,41.0,26.64,NW,315,6.0,7.0,18,0.00,,,0.00,Rainwise IP-100,2013-07-11 02:30:00,
2013-07-10 20:35:00,91.0,40.0,26.65,WNW,292,1.0,7.0,17,0.00,,,0.00,Rainwise IP-100,2013-07-11 02:35:00,
2013-07-10 20:40:00,91.0,40.0,26.65,West,270,0.0,5.0,17,0.00,,,0.00,Rainwise IP-100,2013-07-11 02:40:00,
2013-07-10 20:45:00,91.0,40.0,26.65,West,270,2.0,3.0,17,0.00,,,0.00,Rainwise IP-100,2013-07-11 02:45:00,
2013-07-10 20:50:00,90.0,41.0,26.64,NNW,337,0.0,4.0,18,0.00,,,0.00,Rainwise IP-100,2013-07-11 02:50:00,
2013-07-10 20:55:00,89.0,40.0,26.65,NNW,337,0.0,2.0,18,0.00,,,0.00,Rainwise IP-100,2013-07-11 02:55:00,
2013-07-10 21:00:00,88.0,39.0,26.65,NW,315,0.0,5.0,18,0.00,,,0.00,Rainwise IP-100,2013-07-11 03:00:00,
2013-07-10 21:05:00,88.0,39.0,26.65,NW,315,1.0,5.0,18,0.00,,,0.00,Rainwise IP-100,2013-07-11 03:05:00,
2013-07-10 21:11:00,87.0,38.0,26.65,WNW,292,0.0,6.0,18,0.00,,,0.00,Rainwise IP-100,2013-07-11 03:11:00,
2013-07-10 21:15:00,87.0,38.0,26.66,WNW,292,5.0,7.0,18,0.00,,,0.00,Rainwise IP-100,2013-07-11 03:15:00,
2013-07-10 21:20:00,87.0,38.0,26.66,WNW,292,4.0,9.0,18,0.00,,,0.00,Rainwise IP-100,2013-07-11 03:20:00,
2013-07-10 21:25:00,87.0,38.0,26.65,NW,315,6.0,6.0,18,0.00,,,0.00,Rainwise IP-100,2013-07-11 03:25:00,
2013-07-10 21:30:00,86.0,39.0,26.65,WNW,292,4.0,7.0,19,0.00,,,0.00,Rainwise IP-100,2013-07-11 03:30:00,
2013-07-10 21:35:00,86.0,40.0,26.66,NNW,337,5.0,6.0,20,0.00,,,0.00,Rainwise IP-100,2013-07-11 03:35:00,
2013-07-10 21:40:00,85.0,39.0,26.66,WNW,292,2.0,8.0,20,0.00,,,0.00,Rainwise IP-100,2013-07-11 03:40:00,
2013-07-10 21:45:00,85.0,39.0,26.66,West,270,1.0,7.0,20,0.00,,,0.00,Rainwise IP-100,2013-07-11 03:45:00,
2013-07-10 21:50:00,84.0,40.0,26.66,WNW,292,1.0,6.0,21,0.00,,,0.00,Rainwise IP-100,2013-07-11 03:50:00,
2013-07-10 21:55:00,84.0,40.0,26.67,WNW,292,3.0,5.0,21,0.00,,,0.00,Rainwise IP-100,2013-07-11 03:55:00,
2013-07-10 22:00:00,83.0,40.0,26.67,West,270,1.0,4.0,22,0.00,,,0.00,Rainwise IP-100,2013-07-11 04:00:00,
2013-07-10 22:01:00,83.0,40.0,26.67,West,270,1.0,4.0,22,0.00,,,0.00,Rainwise IP-100,2013-07-11 04:01:00,
2013-07-10 22:06:00,83.0,40.0,26.67,West,270,0.0,1.0,22,0.00,,,0.00,Rainwise IP-100,2013-07-11 04:06:00,
2013-07-10 22:11:00,82.0,41.0,26.67,West,270,0.0,0.0,24,0.00,,,0.00,Rainwise IP-100,2013-07-11 04:11:00,
2013-07-10 22:12:00,82.0,41.0,26.67,West,270,0.0,0.0,24,0.00,,,0.00,Rainwise IP-100,2013-07-11 04:12:00,
2013-07-10 22:17:00,81.0,43.0,26.68,West,270,0.0,0.0,26,0.00,,,0.00,Rainwise IP-100,2013-07-11 04:17:00,
2013-07-10 22:22:00,81.0,44.0,26.68,South,180,2.0,3.0,27,0.00,,,0.00,Rainwise IP-100,2013-07-11 04:22:00,
2013-07-10 22:27:00,81.0,44.0,26.69,SSE,157,0.0,4.0,27,0.00,,,0.00,Rainwise IP-100,2013-07-11 04:27:00,
2013-07-10 22:32:00,80.0,44.0,26.69,ESE,112,2.0,3.0,28,0.00,,,0.00,Rainwise IP-100,2013-07-11 04:32:00,
2013-07-10 22:37:00,80.0,46.0,26.69,ESE,112,0.0,3.0,30,0.00,,,0.00,Rainwise IP-100,2013-07-11 04:37:00,
2013-07-10 22:42:00,80.0,43.0,26.69,ESE,112,0.0,0.0,27,0.00,,,0.00,Rainwise IP-100,2013-07-11 04:42:00,
2013-07-10 22:47:00,80.0,43.0,26.69,SE,135,0.0,0.0,27,0.00,,,0.00,Rainwise IP-100,2013-07-11 04:47:00,
2013-07-10 22:52:00,80.0,43.0,26.69,SE,135,0.0,1.0,27,0.00,,,0.00,Rainwise IP-100,2013-07-11 04:52:00,
2013-07-10 22:57:00,79.0,44.0,26.69,SE,135,0.0,1.0,29,0.00,,,0.00,Rainwise IP-100,2013-07-11 04:57:00,
2013-07-10 23:02:00,79.0,44.0,26.69,NE,45,0.0,0.0,29,0.00,,,0.00,Rainwise IP-100,2013-07-11 05:02:00,
2013-07-10 23:07:00,79.0,42.0,26.70,WNW,292,2.0,5.0,27,0.00,,,0.00,Rainwise IP-100,2013-07-11 05:07:00,
2013-07-10 23:12:00,79.0,42.0,26.70,WNW,292,0.0,3.0,27,0.00,,,0.00,Rainwise IP-100,2013-07-11 05:12:00,
2013-07-10 23:17:00,79.0,42.0,26.71,WNW,292,0.0,0.0,27,0.00,,,0.00,Rainwise IP-100,2013-07-11 05:17:00,
2013-07-10 23:22:00,78.0,41.0,26.71,West,270,0.0,4.0,27,0.00,,,0.00,Rainwise IP-100,2013-07-11 05:22:00,
2013-07-10 23:27:00,78.0,41.0,26.71,North,360,5.0,6.0,27,0.00,,,0.00,Rainwise IP-100,2013-07-11 05:27:00,
2013-07-10 23:32:00,79.0,42.0,26.71,NW,315,3.0,9.0,27,0.00,,,0.00,Rainwise IP-100,2013-07-11 05:32:00,
2013-07-10 23:37:00,79.0,42.0,26.71,WNW,292,2.0,6.0,27,0.00,,,0.00,Rainwise IP-100,2013-07-11 05:37:00,
2013-07-10 23:42:00,79.0,42.0,26.71,NW,315,1.0,4.0,27,0.00,,,0.00,Rainwise IP-100,2013-07-11 05:42:00,
2013-07-10 23:47:00,78.0,43.0,26.71,WNW,292,3.0,6.0,29,0.00,,,0.00,Rainwise IP-100,2013-07-11 05:47:00,
2013-07-10 23:52:00,78.0,43.0,26.71,WNW,292,3.0,9.0,29,0.00,,,0.00,Rainwise IP-100,2013-07-11 05:52:00,
2013-07-10 23:57:00,78.0,43.0,26.71,NW,315,2.0,6.0,29,0.00,,,0.00,Rainwise IP-100,2013-07-11 05:57:00,